Location: Peebles
(55.6412°N, 3.1714°W)
Time: 02:39:13
(UTC+01:00)

FENGYUN 1C DEB - Pass Details

Date: 12 July 2022
Orbit: 580 x 1160 km, 99.3° (Epoch: 11 August)

Event Time Altitude Azimuth Distance (km) Brightness Sun altitude
Exits shadow 03:00:52 - 239° (WSW) 3,237 ? -9.4°
Reaches altitude 10° 03:03:06 10° 255° (WSW) 2,833 ? -9.2°
Maximum altitude 03:06:08 14° 284° (WNW) 2,656 ? -9.1°
Drops below altitude 10° 03:09:18 10° 312° (NW) 2,985 ? -8.9°
Sets 03:13:43 0° 337° (NNW) 4,016 ? -8.6°
